Voltar ao catálogo

PRAETORIAN SDA_604

AtivoMilitarPO
NORAD 65567·PAYLOAD·🇺🇸 United States

Lançado Sep 10, 2025 de Vandenberg Space Force Base

Loading…

Próximas Passagens (próximas 24 horas)

TLE

AtualizadoSource: Space-Track

Época: Sep 14, 2026, 11:40 UTC

1 65567U 25203C   26257.48651800  .00000055  00000-0  39698-4 0  9994
2 65567  81.3026 288.5839 0004810 329.0218  31.0654 13.83056380 51026

Acompanhe PRAETORIAN SDA_604 em tempo real com AllMySat

Download on the App Store